User: anonymous   Login
Location: Dodgeville, WI 53533, USA
(43.0344°N, 90.0900°W)
Time: 00:33:31
(UTC-06:00)
Language:

N. Korean satellite - Orbit

View from above orbital plane
View from above orbital plane
View from above satellite
View from above satellite

Ground track
Ground track

The orbit data is extracted from the following two-line orbital elements,

1 39026U 12072A   21063.77442531  .00003635  00000-0  12644-3 0  9994
2 39026  97.2405  59.2551 0037354  39.8909 320.5066 15.29672307457084
Epoch (UTC): 04 March 2021 18:35:10
Eccentricity: 0.0037354
inclination: 97.2405°
perigee height: 451 km
apogee height: 502 km
right ascension of ascending node: 59.2551°
argument of perigee: 39.8909°
revolutions per day: 15.29672307
mean anomaly at epoch: 320.5066°
orbit number at epoch: 45708

The dashed part of the orbit path shows where the satellite is in the earth's shadow,  

DLR